Terminal Aerodrome Forecast
Issued by NWS

Home | Current Version | Previous Version | Text Only | Print | Product List | Glossary Off
Versions: 1 2 3 4 5 6 7 8 9 10 11 12 13 14 15 16 17 18 19 20 21

000
FTUS43 KUNR 231100
TAFGCC
TAF
KGCC 231120Z 2312/2412 15011KT P6SM SKC
     FM232200 16014KT P6SM VCTS SCT080CB
     FM240400 16019KT P6SM SCT150
     FM241000 20011KT P6SM SKC=

USA.gov is the U.S. government's official web portal to all federal, state and local government web resources and services.